| time (UTC) | temp F | wind direction | speed knots | gust knots | rain 1hr in | rain 24hr in | rain mn in | humidity % | barometer mb |
| 20260503001512 | 60 | 271 | 0.0 | 0.0 | 0.00 | 0.00 | 0.00 | 41 | 1018.8 |
| 20260503000009 | 60 | 294 | 0.0 | 0.0 | 0.00 | 0.00 | 0.00 | 41 | 1018.7 |
| 20260502234509 | 60 | 300 | 0.0 | 0.0 | 0.00 | 0.00 | 0.00 | 41 | 1018.7 |
| 20260502233008 | 61 | 273 | 0.0 | 7.0 | 0.00 | 0.00 | 0.00 | 40 | 1018.7 |
| 20260502231507 | 61 | 318 | 0.0 | 6.1 | 0.00 | 0.00 | 0.00 | 38 | 1018.8 |
| 20260502230108 | 61 | 242 | 0.0 | 1.7 | 0.00 | 0.00 | 0.00 | 40 | 1018.8 |
| 20260502224506 | 61 | 311 | 0.0 | 5.2 | 0.00 | 0.00 | 0.00 | 40 | 1018.8 |
| 20260502223005 | 61 | 222 | 0.0 | 5.2 | 0.00 | 0.00 | 0.00 | 40 | 1018.7 |
| 20260502221503 | 60 | 351 | 0.0 | 7.0 | 0.00 | 0.00 | 0.00 | 40 | 1018.8 |
| 20260502220004 | 60 | 269 | 0.0 | 7.0 | 0.00 | 0.00 | 0.00 | 39 | 1018.8 |
| 20260502214503 | 60 | 355 | 0.0 | 7.8 | 0.00 | 0.00 | 0.00 | 42 | 1018.8 |
| 20260502213003 | 59 | 355 | 0.0 | 3.5 | 0.00 | 0.00 | 0.00 | 43 | 1018.9 |
| 20260502211503 | 59 | 304 | 0.0 | 3.5 | 0.00 | 0.00 | 0.00 | 41 | 1019.0 |
| 20260502210116 | 60 | 41 | 0.0 | 1.7 | 0.00 | 0.00 | 0.00 | 41 | 1019.0 |
| 20260502204559 | 59 | 65 | 0.0 | 0.9 | 0.00 | 0.00 | 0.00 | 43 | 1019.1 |
| 20260502203100 | 60 | 15 | 0.0 | 8.7 | 0.00 | 0.00 | 0.00 | 40 | 1019.3 |
| 20260502201556 | 60 | 281 | 0.0 | 4.3 | 0.00 | 0.00 | 0.00 | 40 | 1019.4 |
| 20260502200052 | 59 | 275 | 0.0 | 4.3 | 0.00 | 0.00 | 0.00 | 43 | 1019.6 |
| 20260502194550 | 57 | 286 | 0.0 | 1.7 | 0.00 | 0.00 | 0.00 | 46 | 1019.7 |
| 20260502193049 | 59 | 36 | 0.9 | 9.6 | 0.00 | 0.00 | 0.00 | 45 | 1019.7 |
| 20260502191556 | 59 | 5 | 0.9 | 8.7 | 0.00 | 0.00 | 0.00 | 43 | 1019.8 |
| 20260502190055 | 58 | 343 | 0.0 | 12.2 | 0.00 | 0.00 | 0.00 | 44 | 1019.9 |
| 20260502184553 | 58 | 17 | 0.0 | 7.0 | 0.00 | 0.00 | 0.00 | 48 | 1019.8 |
| 20260502183101 | 57 | 50 | 1.7 | 8.7 | 0.00 | 0.00 | 0.00 | 47 | 1019.9 |
| 20260502181544 | 57 | 45 | 0.9 | 5.2 | 0.00 | 0.00 | 0.00 | 47 | 1019.8 |
| 20260502163026 | 55 | 10 | 0.0 | 9.6 | 0.00 | 0.00 | 0.00 | 54 | 1020.2 |
| 20260502161524 | 56 | 28 | 0.0 | 7.0 | 0.00 | 0.00 | 0.00 | 55 | 1020.1 |
| 20260502151517 | 56 | 57 | 1.7 | 7.8 | 0.00 | 0.00 | 0.00 | 61 | 1019.8 |
| 20260502123057 | 48 | 19 | 0.0 | 4.3 | 0.00 | 0.00 | 0.00 | 83 | 1018.7 |
| 20260502121555 | 48 | 194 | 0.9 | 4.3 | 0.00 | 0.00 | 0.00 | 84 | 1018.6 |
| 20260502114546 | 46 | 17 | 0.0 | 0.9 | 0.00 | 0.00 | 0.00 | 85 | 1018.1 |
| 20260502113044 | 46 | 13 | 0.0 | 0.0 | 0.00 | 0.00 | 0.00 | 84 | 1017.7 |
| 20260502111541 | 47 | 14 | 0.0 | 2.6 | 0.00 | 0.00 | 0.00 | 83 | 1017.6 |
| 20260502110040 | 47 | 34 | 0.0 | 2.6 | 0.00 | 0.00 | 0.00 | 82 | 1017.5 |
| 20260502104537 | 47 | 355 | 0.0 | 1.7 | 0.00 | 0.00 | 0.00 | 81 | 1017.5 |
| 20260502103040 | 47 | 17 | 0.0 | 2.6 | 0.00 | 0.00 | 0.00 | 81 | 1017.3 |
| 20260502101542 | 48 | 16 | 0.0 | 2.6 | 0.00 | 0.00 | 0.00 | 80 | 1017.3 |
| 20260502091520 | 50 | 23 | 0.0 | 1.7 | 0.00 | 0.00 | 0.00 | 72 | 1017.0 |
| 20260502071508 | 52 | 315 | 0.0 | 1.7 | 0.00 | 0.00 | 0.00 | 66 | 1017.5 |
| 20260502070007 | 52 | 121 | 0.9 | 7.8 | 0.00 | 0.00 | 0.00 | 65 | 1017.1 |
| 20260502064508 | 52 | 140 | 0.0 | 5.2 | 0.00 | 0.00 | 0.00 | 65 | 1017.3 |
| 20260502063019 | 53 | 21 | 0.0 | 4.3 | 0.00 | 0.00 | 0.00 | 64 | 1017.7 |
| 20260502061503 | 52 | 88 | 0.0 | 7.8 | 0.00 | 0.00 | 0.00 | 65 | 1017.1 |
| 20260502060100 | 52 | 30 | 0.0 | 1.7 | 0.00 | 0.00 | 0.00 | 67 | 1017.2 |
| 20260502054556 | 52 | 350 | 0.0 | 2.6 | 0.00 | 0.00 | 0.00 | 67 | 1017.2 |
| 20260502053102 | 52 | 57 | 0.0 | 0.0 | 0.00 | 0.00 | 0.00 | 68 | 1017.1 |
| 20260502051603 | 52 | 333 | 0.0 | 2.6 | 0.00 | 0.00 | 0.00 | 68 | 1017.3 |
| 20260502050043 | 52 | 287 | 0.0 | 0.0 | 0.00 | 0.00 | 0.00 | 66 | 1017.2 |
| 20260502044544 | 52 | 287 | 0.0 | 0.0 | 0.00 | 0.00 | 0.00 | 65 | 1017.1 |
| 20260502043042 | 53 | 287 | 0.0 | 0.0 | 0.00 | 0.00 | 0.00 | 63 | 1017.2 |
| 20260502041602 | 54 | 288 | 0.0 | 0.0 | 0.00 | 0.00 | 0.00 | 61 | 1017.3 |
| 20260502040044 | 54 | 287 | 0.0 | 0.0 | 0.00 | 0.00 | 0.00 | 60 | 1017.3 |
| 20260502034542 | 54 | 287 | 0.0 | 0.0 | 0.00 | 0.01 | 0.00 | 60 | 1017.4 |
| 20260502033053 | 54 | 287 | 0.0 | 0.0 | 0.00 | 0.01 | 0.00 | 59 | 1017.4 |
| 20260502031540 | 54 | 288 | 0.0 | 0.0 | 0.00 | 0.01 | 0.00 | 59 | 1017.6 |
| 20260502030040 | 54 | 287 | 0.0 | 0.0 | 0.00 | 0.01 | 0.00 | 57 | 1017.7 |
| 20260502024539 | 55 | 287 | 0.0 | 0.0 | 0.00 | 0.01 | 0.00 | 58 | 1017.5 |
| 20260502023039 | 54 | 287 | 0.0 | 0.0 | 0.00 | 0.01 | 0.00 | 56 | 1017.4 |
| 20260502021538 | 54 | 287 | 0.0 | 0.0 | 0.00 | 0.01 | 0.00 | 56 | 1017.3 |
| 20260502020038 | 54 | 287 | 0.0 | 0.0 | 0.00 | 0.01 | 0.00 | 56 | 1017.0 |
| 20260502014537 | 54 | 287 | 0.0 | 0.0 | 0.00 | 0.01 | 0.00 | 53 | 1016.8 |
| 20260502013037 | 55 | 287 | 0.0 | 0.0 | 0.00 | 0.01 | 0.00 | 51 | 1016.6 |
| 20260502011536 | 56 | 287 | 0.0 | 0.0 | 0.00 | 0.01 | 0.00 | 46 | 1016.4 |
| 20260502010037 | 58 | 287 | 0.0 | 0.0 | 0.00 | 0.01 | 0.00 | 42 | 1016.2 |
| 20260502004535 | 59 | 287 | 0.0 | 0.0 | 0.00 | 0.01 | 0.00 | 41 | 1016.0 |
| 20260502003036 | 60 | 350 | 0.0 | 3.5 | 0.00 | 0.01 | 0.00 | 39 | 1015.9 |